Location: Treviso
(45.6669°N, 12.2430°E)
Time: 01:52:23
(UTC+01:00)

ISS - Pass Details

Date: 04 March 2026
Orbit: 416 x 426 km, 51.6° (Epoch: 9 March)

Event Time Altitude Azimuth Distance (km) Brightness Sun altitude
Exits shadow 05:17:01 35° 229° (SW) 689 -3.1 -16.1°
Maximum altitude 05:17:15 36° 218° (SW) 682 -3.1 -16.0°
Drops below altitude 10° 05:20:20 10° 150° (SSE) 1,484 -0.7 -15.5°
Sets 05:22:30 0° 142° (SE) 2,342 0.5 -15.1°
